TimeMDT,TemperatureF,Dew PointF,Humidity,Sea Level PressureIn,VisibilityMPH,Wind Direction,Wind SpeedMPH,Gust SpeedMPH,PrecipitationIn,Events,Conditions,WindDirDegrees,DateUTC
12:15 AM,39.4,13.6,35,30.04,10.0,ESE,12.7,16.1,N/A,,Clear,120,2012-10-18 06:15:00
12:35 AM,37.9,15.1,39,30.05,10.0,SE,13.8,-,N/A,,Clear,130,2012-10-18 06:35:00
12:55 AM,38.1,15.4,40,30.07,10.0,East,8.1,-,N/A,,Clear,90,2012-10-18 06:55:00
1:15 AM,37.6,16.2,42,30.07,10.0,East,10.4,-,N/A,,Clear,90,2012-10-18 07:15:00
1:35 AM,38.1,16.2,41,30.07,10.0,ESE,8.1,-,N/A,,Clear,110,2012-10-18 07:35:00
1:55 AM,36.7,16.9,45,30.08,10.0,South,4.6,-,N/A,,Clear,180,2012-10-18 07:55:00
2:15 AM,34.7,16.9,48,30.08,10.0,South,4.6,-,N/A,,Clear,180,2012-10-18 08:15:00
2:35 AM,34.3,17.6,50,30.08,10.0,South,4.6,-,N/A,,Clear,180,2012-10-18 08:35:00
2:55 AM,33.3,18.5,55,30.08,10.0,South,4.6,-,N/A,,Clear,170,2012-10-18 08:55:00
3:15 AM,35.1,18.7,51,30.07,10.0,South,4.6,-,N/A,,Clear,190,2012-10-18 09:15:00
3:35 AM,33.3,18.1,54,30.06,10.0,South,6.9,-,N/A,,Clear,190,2012-10-18 09:35:00
3:55 AM,34.3,18.5,52,30.05,10.0,South,3.5,-,N/A,,Clear,180,2012-10-18 09:55:00
4:15 AM,34.7,18.0,51,30.04,10.0,SE,11.5,-,N/A,,Clear,140,2012-10-18 10:15:00
4:35 AM,35.6,17.6,48,30.05,10.0,SSE,5.8,-,N/A,,Clear,150,2012-10-18 10:35:00
4:55 AM,36.5,16.9,45,30.05,10.0,SE,9.2,16.1,N/A,,Clear,140,2012-10-18 10:55:00
5:35 AM,36.1,17.1,46,30.04,10.0,SE,15.0,19.6,N/A,,Clear,140,2012-10-18 11:35:00
5:55 AM,35.8,16.9,46,30.04,10.0,SE,11.5,-,N/A,,Clear,140,2012-10-18 11:55:00
6:15 AM,35.2,16.9,47,30.04,10.0,Calm,Calm,-,N/A,,Clear,0,2012-10-18 12:15:00
6:35 AM,34.7,17.2,49,30.05,10.0,Calm,Calm,-,N/A,,Clear,0,2012-10-18 12:35:00
6:55 AM,34.3,17.2,50,30.05,10.0,SSW,3.5,-,N/A,,Clear,210,2012-10-18 12:55:00
7:15 AM,33.3,17.6,53,30.06,10.0,NW,3.5,-,N/A,,Clear,320,2012-10-18 13:15:00
7:35 AM,32.0,18.0,56,30.07,10.0,WNW,3.5,-,N/A,,Clear,290,2012-10-18 13:35:00
7:55 AM,30.9,19.6,63,30.08,7.0,Calm,Calm,-,N/A,,Clear,0,2012-10-18 13:55:00
8:15 AM,33.8,20.1,57,30.09,10.0,Calm,Calm,-,N/A,,Clear,0,2012-10-18 14:15:00
8:35 AM,36.3,21.0,54,30.09,10.0,Calm,Calm,-,N/A,,Clear,0,2012-10-18 14:35:00
8:55 AM,38.8,18.9,45,30.10,10.0,Calm,Calm,-,N/A,,Clear,0,2012-10-18 14:55:00
9:15 AM,42.6,15.6,34,30.11,10.0,ESE,8.1,-,N/A,,Clear,120,2012-10-18 15:15:00
9:35 AM,44.6,15.8,31,30.09,10.0,SE,6.9,-,N/A,,Clear,130,2012-10-18 15:35:00
9:55 AM,46.0,16.0,30,30.09,10.0,SSE,10.4,-,N/A,,Clear,150,2012-10-18 15:55:00
10:15 AM,48.0,16.3,28,30.08,10.0,ESE,8.1,-,N/A,,Clear,120,2012-10-18 16:15:00
10:35 AM,50.2,15.1,25,30.08,10.0,SE,4.6,-,N/A,,Clear,130,2012-10-18 16:35:00
10:55 AM,51.8,16.0,24,30.07,10.0,ESE,10.4,-,N/A,,Clear,120,2012-10-18 16:55:00
11:15 AM,53.8,15.4,22,30.07,10.0,ESE,10.4,-,N/A,,Clear,110,2012-10-18 17:15:00
11:35 AM,53.8,14.9,22,30.07,10.0,ESE,4.6,-,N/A,,Clear,110,2012-10-18 17:35:00
11:55 AM,55.2,15.1,21,30.07,10.0,East,5.8,-,N/A,,Clear,90,2012-10-18 17:55:00
12:15 PM,55.8,14.9,20,30.07,10.0,ENE,5.8,-,N/A,,Clear,70,2012-10-18 18:15:00
12:35 PM,57.6,14.7,19,30.06,10.0,ENE,5.8,-,N/A,,Clear,70,2012-10-18 18:35:00
12:55 PM,58.1,14.5,18,30.05,10.0,East,5.8,-,N/A,,Clear,90,2012-10-18 18:55:00
1:15 PM,59.5,14.7,17,30.05,10.0,Calm,Calm,-,N/A,,Clear,0,2012-10-18 19:15:00
1:35 PM,60.4,15.3,17,30.04,10.0,East,10.4,-,N/A,,Clear,90,2012-10-18 19:35:00
1:55 PM,61.2,12.7,15,30.04,10.0,Calm,Calm,-,N/A,,Clear,0,2012-10-18 19:55:00
2:15 PM,62.1,12.7,15,30.03,10.0,ENE,6.9,-,N/A,,Clear,60,2012-10-18 20:15:00
2:35 PM,62.8,13.8,15,30.03,10.0,ESE,10.4,-,N/A,,Clear,120,2012-10-18 20:35:00
2:55 PM,62.6,13.5,15,30.03,10.0,East,9.2,-,N/A,,Clear,90,2012-10-18 20:55:00
3:15 PM,63.3,13.5,14,30.03,10.0,ESE,8.1,-,N/A,,Clear,110,2012-10-18 21:15:00
3:35 PM,63.7,13.1,14,30.03,10.0,East,9.2,-,N/A,,Clear,90,2012-10-18 21:35:00
3:55 PM,64.4,12.9,14,30.03,10.0,SE,10.4,-,N/A,,Clear,130,2012-10-18 21:55:00
4:15 PM,63.9,12.0,13,30.03,10.0,East,6.9,-,N/A,,Clear,90,2012-10-18 22:15:00
4:35 PM,63.7,11.7,13,30.02,10.0,ESE,8.1,-,N/A,,Clear,110,2012-10-18 22:35:00
4:55 PM,63.7,11.1,13,30.02,10.0,East,6.9,-,N/A,,Clear,100,2012-10-18 22:55:00
5:15 PM,63.0,11.1,13,30.02,10.0,ESE,9.2,-,N/A,,Clear,110,2012-10-18 23:15:00
5:35 PM,62.1,11.1,14,30.03,10.0,ESE,4.6,-,N/A,,Clear,120,2012-10-18 23:35:00
5:55 PM,61.5,11.3,14,30.03,10.0,Calm,Calm,-,N/A,,Clear,0,2012-10-18 23:55:00
6:15 PM,56.5,13.1,18,30.03,10.0,ESE,4.6,-,N/A,,Clear,120,2012-10-19 00:15:00
6:35 PM,55.8,13.6,19,30.04,10.0,Calm,Calm,-,N/A,,Clear,0,2012-10-19 00:35:00
6:55 PM,54.7,15.6,21,30.05,10.0,SSW,4.6,-,N/A,,Clear,210,2012-10-19 00:55:00
7:15 PM,53.4,14.9,22,30.06,10.0,Calm,Calm,-,N/A,,Clear,0,2012-10-19 01:15:00
7:35 PM,50.0,18.1,28,30.07,10.0,South,3.5,-,N/A,,Clear,170,2012-10-19 01:35:00
7:55 PM,47.8,18.3,31,30.07,10.0,Calm,Calm,-,N/A,,Clear,0,2012-10-19 01:55:00
8:15 PM,48.4,18.3,30,30.08,10.0,Calm,Calm,-,N/A,,Clear,0,2012-10-19 02:15:00
8:35 PM,45.9,18.1,33,30.08,10.0,Calm,Calm,-,N/A,,Clear,0,2012-10-19 02:35:00
8:55 PM,43.5,20.7,40,30.09,10.0,SSW,3.5,-,N/A,,Clear,210,2012-10-19 02:55:00
9:15 PM,50.0,16.0,26,30.10,10.0,ESE,13.8,19.6,N/A,,Clear,120,2012-10-19 03:15:00
9:35 PM,48.4,14.4,26,30.11,10.0,South,3.5,-,N/A,,Clear,180,2012-10-19 03:35:00
9:55 PM,47.3,12.7,25,30.11,10.0,SSE,6.9,-,N/A,,Clear,150,2012-10-19 03:55:00
10:15 PM,45.7,13.5,27,30.11,10.0,South,4.6,-,N/A,,Clear,170,2012-10-19 04:15:00
10:35 PM,46.2,12.6,26,30.11,10.0,South,4.6,-,N/A,,Clear,170,2012-10-19 04:35:00
10:55 PM,45.1,13.1,27,30.11,10.0,SSW,3.5,-,N/A,,Clear,200,2012-10-19 04:55:00
11:15 PM,43.9,13.6,29,30.11,10.0,Calm,Calm,-,N/A,,Clear,0,2012-10-19 05:15:00
11:35 PM,39.2,16.3,40,30.11,10.0,Calm,Calm,-,N/A,,Clear,0,2012-10-19 05:35:00
11:55 PM,37.6,16.0,41,30.11,10.0,Calm,Calm,-,N/A,,Clear,0,2012-10-19 05:55:00